Location: Rodgers Crossing
(36.8619°N, 119.1209°W)
Time: 10:35:29
(UTC+00:00)

Daily predictions for brighter satellites

Satellite Brightness Start Highest point End
(mag) Time Altitude Azimuth Time Altitude Azimuth Time Altitude Azimuth
PSLV R/B 3.5 12:01:35 10° N 12:05:57 71° WNW 12:10:15 10° SSW
OAO 3 Rocket 3.2 12:07:27 14° W 12:11:39 72° S 12:16:33 10° E
ARIANE 5 R/B 4.3 12:08:32 10° NNW 12:11:43 17° WNW 12:14:18 12° W
Hubble Space Telescope 2.7 12:09:58 11° SSW 12:12:21 17° SSE 12:15:07 10° ESE
Cosmos 1844 Rocket 2.7 12:07:41 11° SSW 12:13:06 74° WNW 12:18:41 10° NNE
H-2A R/B (2) 2.7 12:12:19 15° SW 12:13:33 19° S 12:16:22 10° SE
Cosmos 2228 3.9 12:12:57 15° SW 12:15:55 31° WNW 12:19:50 10° NNW
deb Chang Zheng 4 3.6 12:11:41 10° NNE 12:16:04 89° W 12:20:24 10° SSW
Atlas Centaur 2 3.4 12:11:46 14° WSW 12:17:46 49° SSE 12:25:45 10° E
Cosmos 1386 Rocket 4.5 12:16:22 10° NNW 12:22:15 58° W 12:28:06 10° S
SAR-Lupe-4 3.6 12:22:33 10° SSE 12:26:06 87° ENE 12:29:42 10° NNW
NOSS 2-2 (D) 3.0 12:24:02 10° SW 12:27:35 73° WNW 12:31:17 10° NNE
NOSS 2-2 (E) 3.4 12:24:39 12° SW 12:27:53 52° NW 12:31:33 10° NNE
Cosmos 2058 Rocket 3.4 12:25:17 10° SSW 12:29:36 47° W 12:33:55 10° N
USA 267 3.3 12:26:00 10° SE 12:32:33 81° SW 12:39:07 10° NW
Lacrosse 5 rocket 4.2 12:32:19 10° SSE 12:35:01 16° ESE 12:37:46 10° E
IDEFIX/ARIANE 42P 4.4 12:34:38 10° NNW 12:37:22 15° WNW 12:40:07 10° W
Cosmos 1689 Rocket 3.5 12:35:44 10° SSE 12:38:30 43° ENE 12:41:17 10° N
ADEOS 3.6 12:35:13 10° N 12:40:23 65° WNW 12:45:32 10° SSW
SAR-Lupe-1 4.1 12:37:47 10° S 12:41:19 61° WSW 12:44:53 10° NNW
H-2A R/B 3.5 12:39:09 10° SW 12:41:47 17° W 12:44:26 10° NW
In-Cosmos 22 Rocket 4.4 12:40:52 10° N 12:46:44 88° E 12:52:31 10° S
OAO 2 Rocket 3.6 12:42:11 10° WSW 12:47:24 62° S 12:52:31 10° E
